Weather in Ripky

Ukraine / Chernihiv Region     51°48′08″N   31°05′00″E
temp.,
°C
wind,
m/s
gust,
m/s
humid.,
%
clouds,
%
prec.,
mm/h
press.,
hPa
HPBL,
m
22 april, thu
thu2200:00+7ssw3885100 0.1 1013178
03:00+6ssw3891100 0.3 1013164
06:00+5ssw499135 0.0 1014169
09:00+10sw59715 0.0 1014395
12:00+15sw685833 0.0 10141283
15:00+16sw8105316 1.6 10141724
18:00+15sw7115998 0.6 10131278
21:00+11sw61374100 1.8 1014541
23 april, fri
fri2300:00+8sw239595 0.2 101465
03:00+8sw359397 0.3 1013187
06:00+5nw5893100 1.0 1015493
09:00+6wnw4677100 1.0 1016598
12:00+8w4560100 0.0 10161173
15:00+9w4552100 0.1 10161456
18:00+9w4656100 0.2 10151118
21:00+5wnw367698 0.5 1015124
24 april, sat
sat2400:00+3w358314 0.0 1015105
03:00+1w37882 0.0 1015138
06:000wsw33913 0.0 101452
09:00+4wsw557992 0.0 1013659
12:00+2wnw5998100 1.1 1015469
15:00+7nw795794 1.4 10151859
18:00+7wnw7105661 0.0 10161744
21:00+3w4107470 0.0 1018283
25 april, sun
sun2500:00+2wsw41180100 0.0 1018325
03:00+1wsw4108756 0.0 1018223
06:000wsw4118697 0.0 1017311
09:00+4w59677 0.0 1017904
12:00+7w795294 0.1 10172048
15:00+8w7942100 0.2 10162304
18:00+6wnw685011 0.1 10171509
21:00+2w34653 0.1 101859
26 april, mon
mon2600:00+1w377613 0.0 1018140
03:00+1wsw3678100 0.0 1017142
06:000sw3785100 0.1 1017195
09:00+4wsw4572100 0.2 1016646
12:00+4nw6776100 0.6 1016925
15:00+7wnw6748100 1.5 10152049
18:00+6wnw685480 0.1 10151559
21:00+2w4107768 0.3 1017258